• MPC Preparation (Info)

  • MPEC 2023-C48 : 2022 ST124 = 2014 WP367

    The following Minor Planet Electronic Circular may be linked-to from your own Web pages, but must not otherwise be redistributed electronically.

    A form allowing access to any MPEC is at the bottom of this page.


    Read MPEC 2023-C47 Read MPEC 2023-C49


    M.P.E.C. 2023-C48                              Issued 2023 February 7, 19:50 UT
    
         The Minor Planet Electronic Circulars contain information on unusual
             minor planets, routine data on comets and natural satellites,
             and occasional editorial announcements.  They are published
        on behalf of Division F of the International Astronomical Union by the
              Minor Planet Center, Smithsonian Astrophysical Observatory,
                              Cambridge, MA 02138, U.S.A.
    			  
                 Prepared using the Tamkin Foundation Computer Network
    
                                  MPC@CFA.HARVARD.EDU
                URL https://www.minorplanetcenter.net/    ISSN 1523-6714
    
                             2022 ST124 = 2014 WP367                         
    
                             Revision to MPEC 2022-U169
    
    Orbital elements:
    2022 ST124 = 2014 WP367                                  Earth MOID = 0.0205 AU
    Id. P. VanWylen
    Epoch 2023 Feb. 25.0 TT = JDT 2460000.5                 Veres                   
    M 144.39971              (2000.0)            P               Q                  
    n   0.86716371     Peri.  187.68409     +0.98762825     +0.15665223             
    a   1.0891022      Node   163.29822     -0.14252595     +0.91562592             
    e   0.0548092      Incl.    1.41731     -0.06539726     +0.37025566             
    P   1.14           H   25.58          G   0.15           U   2                  
    Residuals in seconds of arc
    141121 F51  0.1-  0.0     221020 F52  0.0   0.1+    221102 F51  0.0   0.1+
    141121 F51  0.0   0.1-    221020 F52  0.0   0.1+    221102 F51  0.1+  0.1+
    141121 F51  0.0   0.1+    221020 F52  0.2+  0.2+    221102 F51  0.1+  0.0
    141122 568  0.2+  0.0     221021 H36 (2.1-  0.3-)   221102 F51  0.1+  0.1+
    141122 568  0.0   0.0     221021 I52  0.1+  0.1-    221114 691  0.6+  0.4-
    220921 F52  0.1-  0.1-    221021 H36  0.5+  0.1+    221114 691  0.5+  0.0
    220921 F52  0.2-  0.1+    221021 I52  0.5-  0.4-    221114 691  0.6+  0.0
    220921 F52  0.1-  0.1+    221021 I52  0.1+  0.3-    221119 G96  0.2-  0.6+
    220921 F52  0.1-  0.1+    221021 H36  0.9-  0.4-    221119 G96  0.1+  0.3-
    220928 V00  0.7-  0.3-    221021 F51  0.1+  0.1+    221119 G96 (0.7+  0.6-)
    220928 V00  0.0   0.0     221021 F51  0.1+  0.0     221119 G96  0.6+  0.4-
    220928 V00  0.1+  0.1-    221025 673  0.0   0.0     221126 F51  0.1-  0.1+
    220928 V00  0.0   0.0     221025 673  0.3-  0.0     221126 F51  0.0   0.0
    220928 F52  0.1-  0.1+    221028 G96  0.1+  0.4+    221126 F51  0.2-  0.1-
    220928 F52  0.0   0.0     221028 G96  1.3-  0.6-    221126 F51  0.0   0.1-
    220928 F52  0.1-  0.0     221028 G96  0.1-  0.1-
    220928 F52  0.1-  0.1+    221028 G96  0.2-  0.2+
    
    Ephemeris:
    2022 ST124               a,e,i = 1.09, 0.05, 1                   q = 1.0294
    Date    TT    R. A. (2000) Decl.     Delta      r    Elong.  Phase     V
    2023 01 08    03 41 21.1 +11 42 24   0.1819  1.1053   128.3    44.3    23.8
    ...
    2023 01 23    04 07 42.2 +15 27 33   0.2290  1.1176   120.4    49.4    24.5
    ...
    2023 01 31    04 24 46.2 +17 13 29   0.2561  1.1236   116.7    51.6    24.8
    ...
    2023 02 06    04 38 41.4 +18 24 49   0.2771  1.1277   114.1    53.0    25.0
    2023 02 07    04 41 05.4 +18 35 59   0.2807  1.1284   113.6    53.2    25.0
    2023 02 08    04 43 30.7 +18 46 55   0.2842  1.1290   113.2    53.4    25.1
    ...
    2023 02 14    04 58 28.7 +19 47 56   0.3059  1.1328   110.8    54.6    25.3
    ...
    2023 02 22    05 19 31.4 +20 56 29   0.3354  1.1372   107.8    55.9    25.5
    ...
    2023 03 09    06 01 46.8 +22 22 07   0.3916  1.1437   102.6    57.9    25.9
    
    M. P. C. Staff               (C) Copyright 2023 MPC           M.P.E.C. 2023-C48
    


    Read MPEC 2023-C47 Read MPEC 2023-C49


    MPEC number:

    Enter an MPEC number in one of the following forms:

    • 1997-B01 (the full form)
    • J97B01 (the packed version of the full form)
    • B01 (the abbreviated form)